This demonstration page uses our WeatherBlox Daily Observations layout. Learn more.

38.88101, -77.10428

Hourly Observations for April 2, 2018

Temp ( °F °C ) Dew Point ( °F °C ) Humidity (%) Winds ( mph kmh ) Pressure ( in mb ) Visibility ( mi km ) Precip ( " mm )
12:52 am 00:52 Cloudy 52 11.1 40 4.4 64 64 NE 3 6 29.98 1015 10 16.0934 0 0
1:52 am 01:52 Cloudy 52 11.1 40 4.4 64 64 ENE 7 11 29.95 1014 10 16.0934 0 0
2:52 am 02:52 Cloudy 53 11.7 37 2.8 55 55 NNW 15 24 29.99 1016 10 16.0934 0 0
3:52 am 03:52 Cloudy with Light Rain 48 8.9 40 4.4 74 74 N 22 35 29.99 1016 10 16.0934 0.01 0.254
4:52 am 04:52 Cloudy with Light Rain 43 6.1 37 2.8 80 80 NNE 20 31 29.98 1015 10 16.0934 0.01 0.254
5:09 am 05:09 Cloudy 42 5.6 37 2.8 82 82 NNE 20 31 29.97 1015 10 16.0934 0 0.0254
5:52 am 05:52 Cloudy with Light Rain 42 5.6 36 2.2 79 79 NNE 13 20 29.99 1016 10 16.0934 0 0.0254
6:20 am 06:20 Cloudy with Light Rain 42 5.6 36 2.2 79 79 NNE 13 20 30 1016 10 16.0934 0 0.0254
6:30 am 06:30 Cloudy with Light Rain 42 5.6 37 2.8 82 82 N 12 19 30 1016 10 16.0934 0 0.0254
6:46 am 06:46 Cloudy with Light Rain 43 6 37 3 81 81 NNE 12 19 30 1016 10 16.0934 0 0.0254
6:52 am 06:52 Cloudy with Light Rain 43 6.1 37 2.8 80 80 NNE 10 17 30.01 1016 10 16.0934 0 0.0254
7:52 am 07:52 Cloudy 42 5.6 37 2.8 82 82 N 17 28 30.06 1018 10 16.0934 0 0.0254
8:52 am 08:52 Cloudy 42 5.6 36 2.2 79 79 NE 13 20 30.08 1019 10 16.0934 0 0
9:02 am 09:02 Cloudy 42 5.6 36 2.2 79 79 NNE 15 24 30.09 1019 10 16.0934 0 0
9:22 am 09:22 Mostly Cloudy 43 6.1 35 1.7 74 74 NE 14 22 30.09 1019 10 16.0934 0 0
9:48 am 09:48 Mostly Cloudy 45 7 37 3 76 76 NNE 13 20 30.09 1019 10 16.0934 0 0
9:52 am 09:52 Mostly Cloudy 45 7.2 37 2.8 74 74 NE 13 20 30.09 1019 10 16.0934 0 0
10:52 am 10:52 Cloudy 45 7.2 36 2.2 71 71 NNE 12 19 30.11 1020 10 16.0934 0 0
11:52 am 11:52 Cloudy 46 7.8 37 2.8 71 71 NE 13 20 30.11 1020 10 16.0934 0 0
12:52 pm 12:52 Cloudy 47 8.3 37 2.8 69 69 NNE 8 13 30.12 1020 10 16.0934 0 0
1:52 pm 13:52 Cloudy 48 8.9 37 2.8 66 66 N 8 13 30.12 1020 10 16.0934 0 0
2:52 pm 14:52 Cloudy 48 8.9 38 3.3 68 68 ENE 7 11 30.12 1020 10 16.0934 0 0
3:52 pm 15:52 Cloudy 48 8.9 37 2.8 66 66 ENE 7 11 30.11 1020 10 16.0934 0 0
4:52 pm 16:52 Cloudy 48 8.9 37 2.8 66 66 ENE 9 15 30.11 1020 10 16.0934 0 0
5:16 pm 17:16 Cloudy 49 9.4 37 2.8 64 64 ENE 7 11 30.12 1020 10 16.0934 0 0
5:43 pm 17:43 Cloudy 48 8.9 37 2.8 66 66 E 7 11 30.12 1020 10 16.0934 0 0
5:52 pm 17:52 Cloudy 48 8.9 37 2.8 66 66 E 7 11 30.13 1020 10 16.0934 0 0
6:10 pm 18:10 Cloudy 48 8.9 37 2.8 66 66 ENE 8 13 30.15 1021 10 16.0934 0 0
6:52 pm 18:52 Cloudy 48 8.9 36 2.2 63 63 E 7 11 30.14 1021 10 16.0934 0 0
7:52 pm 19:52 Cloudy 46 7.8 37 2.8 71 71 ESE 8 13 30.15 1021 10 16.0934 0 0
8:52 pm 20:52 Mostly Cloudy 45 7.2 35 1.7 68 68 ESE 9 15 30.15 1021 10 16.0934 0 0
9:52 pm 21:52 Mostly Cloudy 45 7.2 35 1.7 68 68 E 5 7 30.17 1022 10 16.0934 0 0
10:52 pm 22:52 Cloudy 45 7.2 35 1.7 68 68 E 5 7 30.19 1022 10 16.0934 0 0
11:52 pm 23:52 Cloudy 45 7.2 35 1.7 68 68 SE 3 6 30.18 1022 10 16.0934 0 0

Powered by AerisWeather